EW4750 Weather Reports


time (UTC)temp
F
wind
direction
speed
knots
gust
knots
rain 1hr
in
rain 24hr
in
rain mn
in
humidity
%
barometer
mb
20260504214546 83 265 2.6 6.1 0.00 0.00 0.00 27 1004.6
20260504213101 83 108 1.7 5.2 0.00 0.00 0.00 29 1004.8
20260504211541 82 106 1.7 7.0 0.00 0.00 0.00 28 1005.0
20260504210037 81 98 3.5 7.0 0.00 0.00 0.00 31 1005.2
20260504204534 81 78 2.6 7.0 0.00 0.00 0.00 28 1005.4
20260504203034 80 109 2.6 6.1 0.00 0.00 0.00 32 1005.5
20260504201533 80 88 4.3 7.8 0.00 0.00 0.00 33 1005.7
20260504200025 79 194 1.7 7.0 0.00 0.00 0.00 37 1005.8
20260504194522 77 121 1.7 5.2 0.00 0.00 0.00 45 1006.0
20260504193019 77 82 1.7 6.1 0.00 0.00 0.00 46 1006.2
20260504191515 76 76 1.7 6.1 0.00 0.00 0.00 48 1006.3
20260504190011 74 87 2.6 7.0 0.00 0.00 0.00 48 1006.5
20260504184513 74 139 2.6 7.0 0.00 0.00 0.00 49 1006.8
20260504183007 74 27 4.3 6.1 0.00 0.00 0.00 49 1006.8
20260504181504 73 59 3.5 5.2 0.00 0.00 0.00 47 1006.9
20260504180100 72 45 2.6 6.1 0.00 0.00 0.00 49 1006.9
20260504174612 71 139 0.9 5.2 0.00 0.00 0.00 49 1007.0
20260504173057 70 68 2.6 4.3 0.00 0.00 0.00 52 1007.2
20260504171550 69 355 1.7 4.3 0.00 0.00 0.00 53 1007.2
20260504110111 54 360 4.3 8.7 0.00 0.00 0.00 64 1007.5
20260504081528 58 244 1.7 7.8 0.00 0.00 0.00 55 1007.2
20260504050012 60 208 0.0 1.7 0.00 0.00 0.00 60 1007.1
20260504044530 60 219 1.7 2.6 0.00 0.00 0.00 63 1007.1
20260504043016 62 219 0.0 1.7 0.00 0.00 0.00 58 1006.8
20260504041510 63 210 0.0 3.5 0.00 0.00 0.00 55 1006.8
20260504040010 63 213 1.7 4.3 0.00 0.00 0.00 55 1006.6
20260504034508 66 196 3.5 6.1 0.00 0.00 0.00 52 1006.5
20260504033010 67 228 2.6 4.3 0.00 0.00 0.00 50 1006.3
20260504031508 68 210 4.3 5.2 0.00 0.00 0.00 53 1006.3
20260504030006 70 200 3.5 5.2 0.00 0.00 0.00 49 1006.2
20260504024514 75 172 0.0 1.7 0.00 0.00 0.00 43 1006.0
20260504023006 76 82 1.7 2.6 0.00 0.00 0.00 41 1005.9
20260504021505 78 80 0.0 0.9 0.00 0.00 0.00 35 1005.9
20260504020012 79 80 0.0 3.5 0.00 0.00 0.00 32 1005.9
20260504014505 80 76 0.9 5.2 0.00 0.00 0.00 33 1005.9
20260504013008 81 53 1.7 5.2 0.00 0.00 0.00 32 1005.9
20260504011501 81 71 3.5 6.1 0.00 0.00 0.00 29 1006.0
20260504010109 81 38 3.5 7.0 0.00 0.00 0.00 28 1006.3
20260504004557 81 57 2.6 7.0 0.00 0.00 0.00 31 1006.5
20260504003056 81 92 1.7 6.1 0.00 0.00 0.00 30 1006.6
20260504001610 82 67 5.2 7.0 0.00 0.00 0.00 27 1006.8
20260504000051 83 95 4.3 7.0 0.00 0.00 0.00 26 1006.9
20260503234548 83 167 0.9 4.3 0.00 0.00 0.00 27 1007.2
20260503233045 83 88 2.6 7.0 0.00 0.00 0.00 26 1007.4
20260503231542 82 74 4.3 6.1 0.00 0.00 0.00 28 1007.7
20260503230040 82 74 4.3 6.1 0.00 0.00 0.00 26 1007.9
20260503224537 83 155 2.6 5.2 0.00 0.00 0.00 28 1008.1
20260503223034 82 185 3.5 5.2 0.00 0.00 0.00 28 1008.4
20260503221538 82 5 1.7 7.8 0.00 0.00 0.00 27 1008.7
20260503220030 82 343 4.3 7.8 0.00 0.00 0.00 32 1008.8